User: anonymous   Login
Location: Unspecified
(90.0000°S, 0.0000°E)
Time: 15:15:50
(UTC+00:00)
Language:

METEOR M2 - Orbit

View from above orbital plane
View from above orbital plane
View from above satellite
View from above satellite

Ground track
Ground track

The orbit data is extracted from the following two-line orbital elements,

1 40069U 14037A   19235.43013762 -.00000019  00000-0  10949-4 0  9998
2 40069  98.5460 278.6033 0006693  73.2893 286.9024 14.20664089265754
Epoch (UTC): 23 August 2019 10:19:23
Eccentricity: 0.0006693
inclination: 98.5460°
perigee height: 818 km
apogee height: 828 km
right ascension of ascending node: 278.6033°
argument of perigee: 73.2893°
revolutions per day: 14.20664089
mean anomaly at epoch: 286.9024°
orbit number at epoch: 26575

The dashed part of the orbit path shows where the satellite is in the earth's shadow,  

DLR